sat.trackr.live / text

‹ back to catalog

STARLINK-34074

NORAD 64099 · 2025-110D

PAYLOAD ACTIVE UNKNOWN

§ Identity

Operator
Country
US
Launch date
2025-05-23
Launch site
AFWTR
Launch vehicle
Mass (kg)
RCS (m²)

Purposes: comms

External: N2YO · Heavens-Above · Gunter

§ Orbital elements

Epoch: 2026-09-20T13:16:42.449376Z

Period
93.85 min
Inclination
53.1604°
Eccentricity
0.0000711
Mean motion
15.34406421 rev/d
Perigee alt
462.2 km
Apogee alt
463.2 km
Semi-major
6,840.8 km
B*
4.5293e-4
RAAN
201.1697°
Arg perigee
88.8567°
Mean anomaly
271.2517°
Rev number
7,572

§ Raw data

STARLINK-340741 64099U 25110D   26263.55326909  .00014961  00000+0  45293-3 0  99912 64099  53.1604 201.1697 0000711  88.8567 271.2517 15.34406421 75722

JSON: /api/v1/satellites/64099 · /tle

For live sub-satellite position, see the globe view (requires WebGL).

§ Visibility from observer

Set your observer location to see the next 7 days of passes ≥ 10°. The values pass through the URL so the page stays shareable.

No JS? Fill the form by hand. The geolocation button needs JavaScript.